Time,TemperatureF,DewpointF,PressureIn,WindDirection,WindDirectionDegrees,WindSpeedMPH,WindSpeedGustMPH,Humidity,HourlyPrecipIn,Conditions,Clouds,dailyrainin,SoftwareType,DateUTC
2013-06-28 00:01:00,74.4,58.2,29.77,WNW,292,0.0,2.0,57,0.00,,---,0.00,VWS V14.01,2013-06-28 05:01:00,
2013-06-28 00:06:00,74.2,58.5,29.77,WNW,294,0.0,2.0,58,0.00,,---,0.00,VWS V14.01,2013-06-28 05:06:00,
2013-06-28 00:11:00,74.1,58.4,29.77,NNW,338,0.0,2.0,58,0.00,,---,0.00,VWS V14.01,2013-06-28 05:11:00,
2013-06-28 00:16:00,74.2,58.0,29.77,WNW,292,0.0,3.0,57,0.00,,---,0.00,VWS V14.01,2013-06-28 05:16:00,
2013-06-28 00:21:00,74.2,58.0,29.76,WNW,292,0.0,3.0,57,0.00,,---,0.00,VWS V14.01,2013-06-28 05:21:00,
2013-06-28 00:26:00,74.1,57.9,29.76,NNW,346,0.0,3.0,57,0.00,,---,0.00,VWS V14.01,2013-06-28 05:26:00,
2013-06-28 00:31:00,74.1,57.9,29.77,NNW,341,0.0,1.0,57,0.00,,---,0.00,VWS V14.01,2013-06-28 05:31:00,
2013-06-28 00:36:00,74.1,57.9,29.77,NNW,335,0.0,2.0,57,0.00,,---,0.00,VWS V14.01,2013-06-28 05:36:00,
2013-06-28 00:41:00,74.0,57.8,29.77,NNW,335,0.0,2.0,57,0.00,,---,0.00,VWS V14.01,2013-06-28 05:41:00,
2013-06-28 00:46:00,73.9,57.7,29.77,NNW,330,0.0,4.0,57,0.00,,---,0.00,VWS V14.01,2013-06-28 05:46:00,
2013-06-28 00:51:00,73.7,57.5,29.77,NNW,329,0.0,4.0,57,0.00,,---,0.00,VWS V14.01,2013-06-28 05:51:00,
2013-06-28 00:56:00,73.6,57.4,29.77,WNW,287,0.0,4.0,57,0.00,,---,0.00,VWS V14.01,2013-06-28 05:56:00,
2013-06-28 01:01:00,73.5,57.8,29.77,WNW,289,0.0,2.0,58,0.00,,---,0.00,VWS V14.01,2013-06-28 06:01:00,
2013-06-28 01:06:00,73.4,57.3,29.77,NNE,19,0.0,2.0,57,0.00,,---,0.00,VWS V14.01,2013-06-28 06:06:00,
2013-06-28 01:11:00,73.1,57.5,29.78,North,6,0.0,2.0,58,0.00,,---,0.00,VWS V14.01,2013-06-28 06:11:00,
2013-06-28 01:16:00,72.9,57.3,29.78,NW,320,0.0,2.0,58,0.00,,---,0.00,VWS V14.01,2013-06-28 06:16:00,
2013-06-28 01:21:00,72.7,57.6,29.78,NW,321,0.0,2.0,59,0.00,,---,0.00,VWS V14.01,2013-06-28 06:21:00,
2013-06-28 01:26:00,72.6,57.5,29.78,NW,320,0.0,2.0,59,0.00,,---,0.00,VWS V14.01,2013-06-28 06:26:00,
2013-06-28 01:31:00,72.5,57.4,29.78,NW,320,0.0,0.0,59,0.00,,---,0.00,VWS V14.01,2013-06-28 06:31:00,
2013-06-28 01:36:00,72.2,57.6,29.78,WNW,287,1.0,3.0,60,0.00,,---,0.00,VWS V14.01,2013-06-28 06:36:00,
2013-06-28 01:41:00,72.1,57.5,29.78,NW,313,0.0,3.0,60,0.00,,---,0.00,VWS V14.01,2013-06-28 06:41:00,
2013-06-28 01:46:00,72.0,57.8,29.78,WNW,295,1.0,1.0,61,0.00,,---,0.00,VWS V14.01,2013-06-28 06:46:00,
2013-06-28 01:51:00,71.9,57.7,29.78,WNW,295,0.0,1.0,61,0.00,,---,0.00,VWS V14.01,2013-06-28 06:51:00,
2013-06-28 01:56:00,71.7,57.5,29.78,WNW,294,0.0,1.0,61,0.00,,---,0.00,VWS V14.01,2013-06-28 06:56:00,
2013-06-28 02:01:00,71.4,57.7,29.78,WNW,295,0.0,0.0,62,0.00,,---,0.00,VWS V14.01,2013-06-28 07:01:00,
2013-06-28 02:06:00,71.3,57.6,29.78,WNW,288,0.0,1.0,62,0.00,,---,0.00,VWS V14.01,2013-06-28 07:06:00,
2013-06-28 02:10:00,71.1,57.9,29.78,WNW,288,0.0,1.0,63,0.00,,---,0.00,VWS V14.01,2013-06-28 07:10:00,
2013-06-28 02:16:00,71.0,57.8,29.78,WNW,296,0.0,1.0,63,0.00,,---,0.00,VWS V14.01,2013-06-28 07:16:00,
2013-06-28 02:20:00,70.8,57.6,29.78,WNW,296,0.0,1.0,63,0.00,,---,0.00,VWS V14.01,2013-06-28 07:20:00,
2013-06-28 02:25:00,70.7,57.9,29.78,WNW,293,0.0,2.0,64,0.00,,---,0.00,VWS V14.01,2013-06-28 07:25:00,
2013-06-28 02:30:00,70.6,57.8,29.79,West,265,0.0,1.0,64,0.00,,---,0.00,VWS V14.01,2013-06-28 07:30:00,
2013-06-28 02:35:00,70.5,57.8,29.78,West,265,0.0,1.0,64,0.00,,---,0.00,VWS V14.01,2013-06-28 07:35:00,
2013-06-28 02:40:00,70.4,58.1,29.78,SW,235,0.0,3.0,65,0.00,,---,0.00,VWS V14.01,2013-06-28 07:40:00,
2013-06-28 02:45:00,70.1,57.8,29.79,SW,235,0.0,1.0,65,0.00,,---,0.00,VWS V14.01,2013-06-28 07:45:00,
2013-06-28 02:50:00,70.0,58.1,29.78,NW,309,0.0,2.0,66,0.00,,---,0.00,VWS V14.01,2013-06-28 07:50:00,
2013-06-28 02:55:00,70.1,58.2,29.78,West,273,0.0,2.0,66,0.00,,---,0.00,VWS V14.01,2013-06-28 07:55:00,
2013-06-28 03:00:00,70.0,58.1,29.78,West,274,0.0,1.0,66,0.00,,---,0.00,VWS V14.01,2013-06-28 08:00:00,
2013-06-28 03:05:00,69.9,58.0,29.78,West,268,1.0,3.0,66,0.00,,---,0.00,VWS V14.01,2013-06-28 08:05:00,
2013-06-28 03:10:00,69.9,58.0,29.78,WNW,293,0.0,3.0,66,0.00,,---,0.00,VWS V14.01,2013-06-28 08:10:00,
2013-06-28 03:15:00,69.9,58.0,29.78,WNW,290,0.0,2.0,66,0.00,,---,0.00,VWS V14.01,2013-06-28 08:15:00,
2013-06-28 03:20:00,69.8,58.4,29.78,NW,315,0.0,2.0,67,0.00,,---,0.00,VWS V14.01,2013-06-28 08:20:00,
2013-06-28 03:25:00,69.7,58.3,29.77,NNW,329,0.0,2.0,67,0.00,,---,0.00,VWS V14.01,2013-06-28 08:25:00,
2013-06-28 03:30:00,69.7,58.3,29.77,West,266,0.0,2.0,67,0.00,,---,0.00,VWS V14.01,2013-06-28 08:30:00,
2013-06-28 03:35:00,69.6,58.6,29.77,WSW,249,3.0,4.0,68,0.00,,---,0.00,VWS V14.01,2013-06-28 08:35:00,
2013-06-28 03:40:00,69.6,58.6,29.77,West,275,1.0,4.0,68,0.00,,---,0.00,VWS V14.01,2013-06-28 08:40:00,
2013-06-28 03:45:00,69.4,58.4,29.77,West,276,1.0,2.0,68,0.00,,---,0.00,VWS V14.01,2013-06-28 08:45:00,
2013-06-28 03:50:00,69.2,58.6,29.77,West,271,1.0,2.0,69,0.00,,---,0.00,VWS V14.01,2013-06-28 08:50:00,
2013-06-28 03:55:00,69.1,58.5,29.77,WNW,289,1.0,5.0,69,0.00,,---,0.00,VWS V14.01,2013-06-28 08:55:00,
2013-06-28 04:00:00,69.0,58.4,29.77,WNW,292,0.0,2.0,69,0.00,,---,0.00,VWS V14.01,2013-06-28 09:00:00,
2013-06-28 04:05:00,68.9,58.7,29.77,WNW,293,1.0,3.0,70,0.00,,---,0.00,VWS V14.01,2013-06-28 09:05:00,
2013-06-28 04:10:00,68.8,58.6,29.77,North,2,0.0,3.0,70,0.00,,---,0.00,VWS V14.01,2013-06-28 09:10:00,
2013-06-28 04:15:00,68.7,58.9,29.77,NW,319,0.0,2.0,71,0.00,,---,0.00,VWS V14.01,2013-06-28 09:15:00,
2013-06-28 04:20:00,68.6,58.8,29.77,West,280,0.0,2.0,71,0.00,,---,0.00,VWS V14.01,2013-06-28 09:20:00,
2013-06-28 04:25:00,68.4,59.0,29.77,West,280,1.0,4.0,72,0.00,,---,0.00,VWS V14.01,2013-06-28 09:25:00,
2013-06-28 04:30:00,68.3,58.9,29.77,West,280,0.0,1.0,72,0.00,,---,0.00,VWS V14.01,2013-06-28 09:30:00,
2013-06-28 04:35:00,68.2,59.2,29.77,WNW,301,1.0,3.0,73,0.00,,---,0.00,VWS V14.01,2013-06-28 09:35:00,
2013-06-28 04:40:00,68.2,59.2,29.77,NW,320,0.0,3.0,73,0.00,,---,0.00,VWS V14.01,2013-06-28 09:40:00,
2013-06-28 04:45:00,68.2,59.2,29.77,WNW,287,0.0,5.0,73,0.00,,---,0.00,VWS V14.01,2013-06-28 09:45:00,
2013-06-28 04:50:00,68.2,59.2,29.77,WNW,288,0.0,5.0,73,0.00,,---,0.00,VWS V14.01,2013-06-28 09:50:00,
2013-06-28 04:55:00,68.1,59.1,29.77,NW,323,1.0,5.0,73,0.00,,---,0.00,VWS V14.01,2013-06-28 09:55:00,
2013-06-28 05:00:00,68.1,59.1,29.77,NW,304,1.0,3.0,73,0.00,,---,0.00,VWS V14.01,2013-06-28 10:00:00,
2013-06-28 05:05:00,68.1,59.1,29.77,West,273,0.0,3.0,73,0.00,,---,0.00,VWS V14.01,2013-06-28 10:05:00,
2013-06-28 05:10:00,68.1,59.1,29.77,WNW,295,0.0,3.0,73,0.00,,---,0.00,VWS V14.01,2013-06-28 10:10:00,
2013-06-28 05:15:00,68.0,59.0,29.76,WNW,290,0.0,4.0,73,0.00,,---,0.00,VWS V14.01,2013-06-28 10:15:00,
2013-06-28 05:20:00,67.9,58.9,29.76,WSW,256,2.0,5.0,73,0.00,,---,0.00,VWS V14.01,2013-06-28 10:20:00,
2013-06-28 05:25:00,67.9,58.9,29.76,WNW,288,0.0,5.0,73,0.00,,---,0.00,VWS V14.01,2013-06-28 10:25:00,
2013-06-28 05:30:00,67.8,58.8,29.76,WNW,287,1.0,1.0,73,0.00,,---,0.00,VWS V14.01,2013-06-28 10:30:00,
2013-06-28 05:35:00,67.7,58.7,29.76,NNW,339,0.0,3.0,73,0.00,,---,0.00,VWS V14.01,2013-06-28 10:35:00,
2013-06-28 05:40:00,67.6,58.7,29.76,WNW,303,0.0,3.0,73,0.00,,---,0.00,VWS V14.01,2013-06-28 10:40:00,
2013-06-28 05:45:00,67.6,58.7,29.76,NW,309,0.0,4.0,73,0.00,,---,0.00,VWS V14.01,2013-06-28 10:45:00,
2013-06-28 05:50:00,67.5,58.5,29.76,WSW,254,0.0,4.0,73,0.00,,---,0.00,VWS V14.01,2013-06-28 10:50:00,
2013-06-28 05:55:00,67.5,58.5,29.76,West,268,0.0,4.0,73,0.00,,---,0.00,VWS V14.01,2013-06-28 10:55:00,
2013-06-28 06:00:00,67.5,58.9,29.76,NNW,327,1.0,2.0,74,0.00,,---,0.00,VWS V14.01,2013-06-28 11:00:00,
2013-06-28 06:05:00,67.4,58.8,29.75,West,268,1.0,2.0,74,0.00,,---,0.00,VWS V14.01,2013-06-28 11:05:00,
2013-06-28 06:10:00,67.4,58.8,29.75,West,270,1.0,5.0,74,0.00,,---,0.00,VWS V14.01,2013-06-28 11:10:00,
2013-06-28 06:15:00,67.7,58.7,29.75,WSW,249,0.0,2.0,73,0.00,,---,0.00,VWS V14.01,2013-06-28 11:15:00,
2013-06-28 06:20:00,67.8,58.8,29.75,NW,304,0.0,2.0,73,0.00,,---,0.00,VWS V14.01,2013-06-28 11:20:00,
2013-06-28 06:25:00,67.9,58.9,29.75,West,271,1.0,4.0,73,0.00,,---,0.00,VWS V14.01,2013-06-28 11:25:00,
2013-06-28 06:30:00,68.1,59.1,29.75,WNW,298,0.0,4.0,73,0.00,,---,0.00,VWS V14.01,2013-06-28 11:30:00,
2013-06-28 06:35:00,68.3,59.3,29.75,WNW,299,1.0,4.0,73,0.00,,---,0.00,VWS V14.01,2013-06-28 11:35:00,
2013-06-28 06:40:00,68.5,59.5,29.75,WNW,282,1.0,7.0,73,0.00,,---,0.00,VWS V14.01,2013-06-28 11:40:00,
2013-06-28 06:45:00,68.6,59.6,29.75,WNW,290,0.0,2.0,73,0.00,,---,0.00,VWS V14.01,2013-06-28 11:45:00,
2013-06-28 06:50:00,68.7,59.7,29.75,NNW,348,1.0,6.0,73,0.00,,---,0.00,VWS V14.01,2013-06-28 11:50:00,
2013-06-28 06:55:00,68.8,59.4,29.75,South,179,0.0,6.0,72,0.00,,---,0.00,VWS V14.01,2013-06-28 11:55:00,
2013-06-28 07:00:00,69.0,59.6,29.75,WNW,300,0.0,4.0,72,0.00,,---,0.00,VWS V14.01,2013-06-28 12:00:00,
2013-06-28 07:05:00,69.2,59.8,29.75,NW,318,1.0,4.0,72,0.00,,---,0.00,VWS V14.01,2013-06-28 12:05:00,
2013-06-28 07:10:00,69.3,59.9,29.75,NNW,338,1.0,4.0,72,0.00,,---,0.00,VWS V14.01,2013-06-28 12:10:00,
2013-06-28 07:15:00,69.4,60.0,29.75,NNW,345,1.0,2.0,72,0.00,,---,0.00,VWS V14.01,2013-06-28 12:15:00,
2013-06-28 07:20:00,69.6,60.2,29.75,NW,316,2.0,3.0,72,0.00,,---,0.00,VWS V14.01,2013-06-28 12:20:00,
2013-06-28 07:25:00,69.7,59.9,29.75,North,6,1.0,6.0,71,0.00,,---,0.00,VWS V14.01,2013-06-28 12:25:00,
2013-06-28 07:30:00,69.8,60.4,29.75,NNE,13,1.0,6.0,72,0.00,,---,0.00,VWS V14.01,2013-06-28 12:30:00,
2013-06-28 07:35:00,69.9,60.1,29.74,NW,310,1.0,6.0,71,0.00,,---,0.00,VWS V14.01,2013-06-28 12:35:00,
2013-06-28 07:40:00,70.0,60.2,29.74,NNW,346,1.0,6.0,71,0.00,,---,0.00,VWS V14.01,2013-06-28 12:40:00,
2013-06-28 07:45:00,70.0,60.2,29.74,NNW,338,3.0,4.0,71,0.00,,---,0.00,VWS V14.01,2013-06-28 12:45:00,
2013-06-28 07:50:00,70.2,60.0,29.74,NW,304,1.0,4.0,70,0.00,,---,0.00,VWS V14.01,2013-06-28 12:50:00,
2013-06-28 07:55:00,70.2,60.0,29.74,SSW,211,1.0,4.0,70,0.00,,---,0.00,VWS V14.01,2013-06-28 12:55:00,
2013-06-28 08:00:00,70.3,60.1,29.74,North,356,1.0,4.0,70,0.00,,---,0.00,VWS V14.01,2013-06-28 13:00:00,
2013-06-28 08:05:00,70.5,59.8,29.74,ESE,113,2.0,6.0,69,0.00,,---,0.00,VWS V14.01,2013-06-28 13:05:00,
2013-06-28 08:10:00,70.6,59.5,29.74,WNW,296,1.0,7.0,68,0.00,,---,0.00,VWS V14.01,2013-06-28 13:10:00,
2013-06-28 08:15:00,70.8,59.7,29.74,North,359,1.0,4.0,68,0.00,,---,0.00,VWS V14.01,2013-06-28 13:15:00,
2013-06-28 08:20:00,71.0,59.5,29.74,NW,312,3.0,8.0,67,0.00,,---,0.00,VWS V14.01,2013-06-28 13:20:00,
2013-06-28 08:25:00,71.2,59.3,29.74,NW,325,1.0,8.0,66,0.00,,---,0.00,VWS V14.01,2013-06-28 13:25:00,
2013-06-28 08:30:00,71.4,59.5,29.75,North,355,1.0,5.0,66,0.00,,---,0.00,VWS V14.01,2013-06-28 13:30:00,
2013-06-28 08:35:00,71.5,59.1,29.74,NNE,12,3.0,5.0,65,0.00,,---,0.00,VWS V14.01,2013-06-28 13:35:00,
2013-06-28 08:40:00,71.8,59.8,29.75,NNE,17,1.0,8.0,66,0.00,,---,0.00,VWS V14.01,2013-06-28 13:40:00,
2013-06-28 08:45:00,72.0,59.6,29.75,North,351,1.0,4.0,65,0.00,,---,0.00,VWS V14.01,2013-06-28 13:45:00,
2013-06-28 08:50:00,71.9,59.5,29.75,WNW,294,1.0,6.0,65,0.00,,---,0.00,VWS V14.01,2013-06-28 13:50:00,
2013-06-28 08:55:00,71.8,59.8,29.75,NNW,338,1.0,6.0,66,0.00,,---,0.00,VWS V14.01,2013-06-28 13:55:00,
2013-06-28 09:00:00,71.8,59.4,29.75,North,355,1.0,5.0,65,0.00,,---,0.00,VWS V14.01,2013-06-28 14:00:00,
2013-06-28 09:05:00,71.6,59.2,29.75,NW,315,1.0,8.0,65,0.00,,---,0.00,VWS V14.01,2013-06-28 14:05:00,
2013-06-28 09:10:00,71.7,59.3,29.75,NNW,336,1.0,8.0,65,0.00,,---,0.00,VWS V14.01,2013-06-28 14:10:00,
2013-06-28 09:15:00,71.9,59.9,29.75,WSW,242,5.0,6.0,66,0.00,,---,0.00,VWS V14.01,2013-06-28 14:15:00,
2013-06-28 09:20:00,71.9,59.5,29.75,NE,55,3.0,8.0,65,0.00,,---,0.00,VWS V14.01,2013-06-28 14:20:00,
2013-06-28 09:25:00,71.5,59.6,29.75,NNW,348,1.0,8.0,66,0.00,,---,0.00,VWS V14.01,2013-06-28 14:25:00,
2013-06-28 09:30:00,71.3,59.8,29.75,North,358,2.0,5.0,67,0.00,,---,0.00,VWS V14.01,2013-06-28 14:30:00,
2013-06-28 09:35:00,71.2,59.7,29.75,NE,38,2.0,5.0,67,0.00,,---,0.00,VWS V14.01,2013-06-28 14:35:00,
2013-06-28 09:40:00,71.4,60.3,29.75,NNW,329,2.0,5.0,68,0.00,,---,0.00,VWS V14.01,2013-06-28 14:40:00,
2013-06-28 09:45:00,72.0,61.7,29.75,NNW,348,1.0,5.0,70,0.00,,---,0.00,VWS V14.01,2013-06-28 14:45:00,
2013-06-28 09:50:00,72.6,61.4,29.75,WNW,283,2.0,5.0,68,0.00,,---,0.00,VWS V14.01,2013-06-28 14:50:00,
2013-06-28 09:55:00,73.1,61.1,29.75,WNW,300,1.0,5.0,66,0.00,,---,0.00,VWS V14.01,2013-06-28 14:55:00,
2013-06-28 10:00:00,73.0,60.5,29.75,ENE,58,1.0,5.0,65,0.00,,---,0.00,VWS V14.01,2013-06-28 15:00:00,
2013-06-28 10:05:00,72.7,60.7,29.75,North,9,0.0,5.0,66,0.00,,---,0.00,VWS V14.01,2013-06-28 15:05:00,
2013-06-28 10:10:00,72.6,61.0,29.75,NNW,341,1.0,6.0,67,0.00,,---,0.00,VWS V14.01,2013-06-28 15:10:00,
2013-06-28 10:15:00,72.5,60.9,29.75,NNW,329,1.0,5.0,67,0.00,,---,0.00,VWS V14.01,2013-06-28 15:15:00,
2013-06-28 10:20:00,72.7,61.5,29.75,NNW,346,2.0,5.0,68,0.00,,---,0.00,VWS V14.01,2013-06-28 15:20:00,
2013-06-28 10:25:00,72.6,61.0,29.75,North,7,2.0,6.0,67,0.00,,---,0.00,VWS V14.01,2013-06-28 15:25:00,
2013-06-28 10:30:00,72.3,61.2,29.75,WNW,301,1.0,6.0,68,0.00,,---,0.00,VWS V14.01,2013-06-28 15:30:00,
2013-06-28 10:35:00,72.3,61.2,29.75,North,7,5.0,6.0,68,0.00,,---,0.00,VWS V14.01,2013-06-28 15:35:00,
2013-06-28 10:40:00,72.5,60.9,29.75,NNE,20,0.0,6.0,67,0.00,,---,0.00,VWS V14.01,2013-06-28 15:40:00,
2013-06-28 10:45:00,72.7,61.5,29.75,NNE,14,1.0,4.0,68,0.00,,---,0.00,VWS V14.01,2013-06-28 15:45:00,
2013-06-28 10:50:00,72.8,61.6,29.75,WNW,303,1.0,5.0,68,0.00,,---,0.00,VWS V14.01,2013-06-28 15:50:00,
2013-06-28 10:55:00,72.9,61.3,29.75,NNW,336,1.0,5.0,67,0.00,,---,0.00,VWS V14.01,2013-06-28 15:55:00,
2013-06-28 11:00:00,72.8,61.6,29.75,NNW,336,1.0,9.0,68,0.00,,---,0.00,VWS V14.01,2013-06-28 16:00:00,
2013-06-28 11:05:00,73.1,61.9,29.75,NNW,338,1.0,9.0,68,0.00,,---,0.00,VWS V14.01,2013-06-28 16:05:00,
2013-06-28 11:10:00,73.6,62.0,29.75,NNE,33,2.0,9.0,67,0.00,,---,0.00,VWS V14.01,2013-06-28 16:10:00,
2013-06-28 11:15:00,73.4,61.4,29.75,NNW,332,2.0,6.0,66,0.00,,---,0.00,VWS V14.01,2013-06-28 16:15:00,
2013-06-28 11:20:00,73.4,62.2,29.75,NNW,328,0.0,6.0,68,0.00,,---,0.00,VWS V14.01,2013-06-28 16:20:00,
2013-06-28 11:25:00,73.3,62.1,29.75,North,3,1.0,6.0,68,0.00,,---,0.00,VWS V14.01,2013-06-28 16:25:00,
2013-06-28 11:30:00,73.0,61.4,29.75,NNW,333,2.0,6.0,67,0.00,,---,0.00,VWS V14.01,2013-06-28 16:30:00,
2013-06-28 11:35:00,72.9,61.7,29.75,North,7,1.0,6.0,68,0.00,,---,0.00,VWS V14.01,2013-06-28 16:35:00,
2013-06-28 11:40:00,73.1,61.9,29.75,North,352,1.0,6.0,68,0.00,,---,0.00,VWS V14.01,2013-06-28 16:40:00,
2013-06-28 11:45:00,73.7,62.5,29.75,NNW,330,1.0,4.0,68,0.00,,---,0.00,VWS V14.01,2013-06-28 16:45:00,
2013-06-28 11:50:00,73.8,61.7,29.75,NW,326,2.0,8.0,66,0.00,,---,0.00,VWS V14.01,2013-06-28 16:50:00,
2013-06-28 11:55:00,73.5,61.9,29.76,NNW,328,1.0,8.0,67,0.00,,---,0.00,VWS V14.01,2013-06-28 16:55:00,
2013-06-28 12:00:00,73.7,62.5,29.76,North,353,2.0,3.0,68,0.00,,---,0.00,VWS V14.01,2013-06-28 17:00:00,
2013-06-28 12:05:00,73.9,61.8,29.76,NNW,329,1.0,4.0,66,0.00,,---,0.00,VWS V14.01,2013-06-28 17:05:00,
2013-06-28 12:10:00,73.4,61.4,29.76,NNE,23,2.0,5.0,66,0.00,,---,0.00,VWS V14.01,2013-06-28 17:10:00,
2013-06-28 12:15:00,73.0,61.4,29.76,North,356,1.0,3.0,67,0.00,,---,0.00,VWS V14.01,2013-06-28 17:15:00,
2013-06-28 12:20:00,73.1,61.9,29.76,NW,318,2.0,5.0,68,0.00,,---,0.00,VWS V14.01,2013-06-28 17:20:00,
2013-06-28 12:25:00,73.3,61.7,29.76,NW,326,1.0,8.0,67,0.00,,---,0.00,VWS V14.01,2013-06-28 17:25:00,
2013-06-28 12:30:00,73.7,62.1,29.76,North,5,2.0,4.0,67,0.00,,---,0.00,VWS V14.01,2013-06-28 17:30:00,
2013-06-28 12:35:00,73.9,62.3,29.76,SE,134,0.0,7.0,67,0.00,,---,0.00,VWS V14.01,2013-06-28 17:35:00,
2013-06-28 12:40:00,74.2,63.0,29.76,NW,316,1.0,7.0,68,0.00,,---,0.00,VWS V14.01,2013-06-28 17:40:00,
2013-06-28 12:45:00,74.3,62.6,29.76,NNW,341,1.0,3.0,67,0.00,,---,0.00,VWS V14.01,2013-06-28 17:45:00,
2013-06-28 12:50:00,74.4,62.7,29.76,North,358,1.0,3.0,67,0.00,,---,0.00,VWS V14.01,2013-06-28 17:50:00,
2013-06-28 12:55:00,74.4,62.3,29.76,North,10,3.0,3.0,66,0.00,,---,0.00,VWS V14.01,2013-06-28 17:55:00,
2013-06-28 13:00:00,74.0,62.4,29.76,North,5,2.0,6.0,67,0.00,,---,0.00,VWS V14.01,2013-06-28 18:00:00,
2013-06-28 13:05:00,73.7,62.5,29.76,NNW,338,2.0,6.0,68,0.00,,---,0.00,VWS V14.01,2013-06-28 18:05:00,
2013-06-28 13:10:00,74.2,63.8,29.76,WNW,296,0.0,8.0,70,0.00,,---,0.00,VWS V14.01,2013-06-28 18:10:00,
2013-06-28 13:15:00,74.6,62.5,29.76,NNW,341,4.0,10.0,66,0.00,,---,0.00,VWS V14.01,2013-06-28 18:15:00,
2013-06-28 13:20:00,74.0,62.8,29.76,WNW,282,2.0,10.0,68,0.00,,---,0.00,VWS V14.01,2013-06-28 18:20:00,
2013-06-28 13:25:00,74.1,64.1,29.76,NNW,346,1.0,10.0,71,0.00,,---,0.00,VWS V14.01,2013-06-28 18:25:00,
2013-06-28 13:30:00,75.5,65.0,29.76,NW,309,1.0,4.0,70,0.00,,---,0.00,VWS V14.01,2013-06-28 18:30:00,
2013-06-28 13:35:00,76.6,64.0,29.75,West,278,3.0,4.0,65,0.00,,---,0.00,VWS V14.01,2013-06-28 18:35:00,
2013-06-28 13:40:00,76.3,63.7,29.76,North,357,3.0,4.0,65,0.00,,---,0.00,VWS V14.01,2013-06-28 18:40:00,
2013-06-28 13:45:00,75.5,62.5,29.76,North,358,3.0,7.0,64,0.00,,---,0.00,VWS V14.01,2013-06-28 18:45:00,
2013-06-28 13:50:00,74.4,62.7,29.76,NW,324,0.0,7.0,67,0.00,,---,0.00,VWS V14.01,2013-06-28 18:50:00,
2013-06-28 13:55:00,74.0,62.4,29.76,NNW,339,1.0,7.0,67,0.00,,---,0.00,VWS V14.01,2013-06-28 18:55:00,
2013-06-28 14:00:00,74.6,63.8,29.75,NW,316,1.0,3.0,69,0.00,,---,0.00,VWS V14.01,2013-06-28 19:00:00,
2013-06-28 14:05:00,75.9,63.7,29.75,NNE,23,6.0,6.0,66,0.00,,---,0.00,VWS V14.01,2013-06-28 19:05:00,
2013-06-28 14:10:00,76.7,64.1,29.75,North,9,1.0,8.0,65,0.00,,---,0.00,VWS V14.01,2013-06-28 19:10:00,
2013-06-28 14:15:00,77.4,64.7,29.75,WNW,293,2.0,3.0,65,0.00,,---,0.00,VWS V14.01,2013-06-28 19:15:00,
2013-06-28 14:20:00,77.3,63.7,29.75,NNW,331,1.0,5.0,63,0.00,,---,0.00,VWS V14.01,2013-06-28 19:20:00,
2013-06-28 14:25:00,76.6,63.1,29.75,North,351,2.0,5.0,63,0.00,,---,0.00,VWS V14.01,2013-06-28 19:25:00,
2013-06-28 14:30:00,76.5,63.0,29.75,NNW,344,1.0,7.0,63,0.00,,---,0.00,VWS V14.01,2013-06-28 19:30:00,
2013-06-28 14:35:00,77.0,63.5,29.75,NW,321,1.0,7.0,63,0.00,,---,0.00,VWS V14.01,2013-06-28 19:35:00,
2013-06-28 14:40:00,77.1,63.5,29.75,North,356,2.0,7.0,63,0.00,,---,0.00,VWS V14.01,2013-06-28 19:40:00,
2013-06-28 14:45:00,77.0,63.9,29.75,North,349,1.0,3.0,64,0.00,,---,0.00,VWS V14.01,2013-06-28 19:45:00,
2013-06-28 14:50:00,76.6,63.1,29.75,NNE,22,1.0,4.0,63,0.00,,---,0.00,VWS V14.01,2013-06-28 19:50:00,
2013-06-28 14:55:00,77.2,65.4,29.75,NNW,346,1.0,4.0,67,0.00,,---,0.00,VWS V14.01,2013-06-28 19:55:00,
2013-06-28 15:00:00,78.4,63.4,29.74,North,356,4.0,10.0,60,0.00,,---,0.00,VWS V14.01,2013-06-28 20:00:00,
2013-06-28 15:05:00,78.8,64.2,29.74,North,358,4.0,10.0,61,0.00,,---,0.00,VWS V14.01,2013-06-28 20:05:00,
2013-06-28 15:10:00,79.0,63.9,29.74,NNE,30,3.0,11.0,60,0.00,,---,0.00,VWS V14.01,2013-06-28 20:10:00,
2013-06-28 15:15:00,79.3,63.7,29.74,West,271,1.0,6.0,59,0.00,,---,0.00,VWS V14.01,2013-06-28 20:15:00,
2013-06-28 15:20:00,78.6,63.1,29.74,NE,34,3.0,7.0,59,0.00,,---,0.00,VWS V14.01,2013-06-28 20:20:00,
2013-06-28 15:25:00,78.6,63.6,29.74,North,2,2.0,8.0,60,0.00,,---,0.00,VWS V14.01,2013-06-28 20:25:00,
2013-06-28 15:30:00,78.8,62.8,29.74,NNW,332,1.0,6.0,58,0.00,,---,0.00,VWS V14.01,2013-06-28 20:30:00,
2013-06-28 15:35:00,79.3,63.3,29.74,NNE,26,1.0,6.0,58,0.00,,---,0.00,VWS V14.01,2013-06-28 20:35:00,
2013-06-28 15:40:00,79.7,64.6,29.73,NW,312,1.0,6.0,60,0.00,,---,0.00,VWS V14.01,2013-06-28 20:40:00,
2013-06-28 15:45:00,80.0,63.4,29.73,NNE,19,6.0,7.0,57,0.00,,---,0.00,VWS V14.01,2013-06-28 20:45:00,
2013-06-28 15:50:00,79.0,63.0,29.73,NW,313,2.0,7.0,58,0.00,,---,0.00,VWS V14.01,2013-06-28 20:50:00,
2013-06-28 15:55:00,79.5,63.9,29.73,NW,325,1.0,7.0,59,0.00,,---,0.00,VWS V14.01,2013-06-28 20:55:00,
2013-06-28 16:00:00,79.5,63.4,29.73,North,10,1.0,5.0,58,0.00,,---,0.00,VWS V14.01,2013-06-28 21:00:00,
2013-06-28 16:05:00,79.4,64.3,29.73,West,273,4.0,6.0,60,0.00,,---,0.00,VWS V14.01,2013-06-28 21:05:00,
2013-06-28 16:10:00,79.0,63.9,29.73,WNW,290,1.0,8.0,60,0.00,,---,0.00,VWS V14.01,2013-06-28 21:10:00,
2013-06-28 16:15:00,78.5,62.0,29.73,North,351,2.0,6.0,57,0.00,,---,0.00,VWS V14.01,2013-06-28 21:15:00,
2013-06-28 16:20:00,78.0,62.0,29.73,NNE,26,2.0,6.0,58,0.00,,---,0.00,VWS V14.01,2013-06-28 21:20:00,
2013-06-28 16:25:00,77.9,62.9,29.73,North,1,1.0,7.0,60,0.00,,---,0.00,VWS V14.01,2013-06-28 21:25:00,
2013-06-28 16:30:00,77.7,61.8,29.73,North,6,2.0,8.0,58,0.00,,---,0.00,VWS V14.01,2013-06-28 21:30:00,
2013-06-28 16:35:00,77.5,62.1,29.73,North,356,1.0,8.0,59,0.00,,---,0.00,VWS V14.01,2013-06-28 21:35:00,
2013-06-28 16:40:00,77.3,63.3,29.73,NNE,12,2.0,8.0,62,0.00,,---,0.00,VWS V14.01,2013-06-28 21:40:00,
2013-06-28 16:45:00,77.0,62.5,29.73,NNE,30,4.0,5.0,61,0.00,,---,0.00,VWS V14.01,2013-06-28 21:45:00,
2013-06-28 16:50:00,76.6,62.6,29.73,North,360,1.0,6.0,62,0.00,,---,0.00,VWS V14.01,2013-06-28 21:50:00,
2013-06-28 16:55:00,76.3,64.6,29.73,North,355,0.0,6.0,67,0.00,,---,0.00,VWS V14.01,2013-06-28 21:55:00,
2013-06-28 17:00:00,75.7,64.0,29.74,NNW,342,1.0,5.0,67,0.00,,---,0.00,VWS V14.01,2013-06-28 22:00:00,
2013-06-28 17:05:00,74.9,64.9,29.74,North,2,1.0,7.0,71,0.01,,---,0.01,VWS V14.01,2013-06-28 22:05:00,
2013-06-28 17:10:00,74.1,66.8,29.74,NW,307,1.0,7.0,78,0.01,,---,0.01,VWS V14.01,2013-06-28 22:10:00,
2013-06-28 17:15:00,74.6,67.7,29.73,North,351,0.0,1.0,79,0.01,,---,0.01,VWS V14.01,2013-06-28 22:15:00,
2013-06-28 17:20:00,75.1,66.6,29.73,North,359,0.0,3.0,75,0.01,,---,0.01,VWS V14.01,2013-06-28 22:20:00,
2013-06-28 17:25:00,75.1,65.9,29.74,NNE,14,1.0,3.0,73,0.01,,---,0.01,VWS V14.01,2013-06-28 22:25:00,
2013-06-28 17:30:00,75.0,65.8,29.74,NNW,341,2.0,3.0,73,0.01,,---,0.01,VWS V14.01,2013-06-28 22:30:00,
2013-06-28 17:35:00,74.9,65.3,29.73,NW,312,1.0,3.0,72,0.01,,---,0.01,VWS V14.01,2013-06-28 22:35:00,
2013-06-28 17:40:00,75.0,65.4,29.73,North,7,1.0,5.0,72,0.01,,---,0.01,VWS V14.01,2013-06-28 22:40:00,
2013-06-28 17:45:00,75.0,64.6,29.73,North,10,0.0,2.0,70,0.01,,---,0.01,VWS V14.01,2013-06-28 22:45:00,
2013-06-28 17:50:00,74.6,65.0,29.73,NNE,16,0.0,3.0,72,0.01,,---,0.01,VWS V14.01,2013-06-28 22:50:00,
2013-06-28 17:55:00,73.9,65.5,29.74,North,3,0.0,5.0,75,0.02,,---,0.02,VWS V14.01,2013-06-28 22:55:00,
2013-06-28 18:00:00,72.7,65.8,29.73,North,10,0.0,3.0,79,0.02,,---,0.02,VWS V14.01,2013-06-28 23:00:00,
2013-06-28 18:04:00,72.5,67.1,29.73,WNW,296,0.0,3.0,83,0.02,,---,0.02,VWS V14.01,2013-06-28 23:04:00,
2013-06-28 18:09:00,73.3,67.8,29.72,WNW,296,0.0,3.0,83,0.02,,---,0.02,VWS V14.01,2013-06-28 23:09:00,
2013-06-28 18:15:00,74.2,66.9,29.72,NW,305,2.0,3.0,78,0.01,,---,0.02,VWS V14.01,2013-06-28 23:15:00,
2013-06-28 18:19:00,75.3,66.4,29.72,NW,317,1.0,5.0,74,0.01,,---,0.02,VWS V14.01,2013-06-28 23:19:00,
2013-06-28 18:24:00,76.0,65.5,29.72,North,355,1.0,8.0,70,0.01,,---,0.02,VWS V14.01,2013-06-28 23:24:00,
2013-06-28 18:29:00,76.7,65.8,29.72,NNW,344,2.0,4.0,69,0.01,,---,0.02,VWS V14.01,2013-06-28 23:29:00,
2013-06-28 18:34:00,76.9,64.7,29.73,WNW,296,1.0,5.0,66,0.01,,---,0.02,VWS V14.01,2013-06-28 23:34:00,
2013-06-28 18:39:00,77.3,64.2,29.73,NNW,341,1.0,5.0,64,0.01,,---,0.02,VWS V14.01,2013-06-28 23:39:00,
2013-06-28 18:44:00,77.6,63.1,29.73,NNW,344,2.0,5.0,61,0.01,,---,0.02,VWS V14.01,2013-06-28 23:44:00,
2013-06-28 18:49:00,77.1,62.6,29.73,NNE,20,2.0,5.0,61,0.01,,---,0.02,VWS V14.01,2013-06-28 23:49:00,
2013-06-28 18:54:00,76.6,62.6,29.74,North,359,1.0,8.0,62,0.01,,---,0.02,VWS V14.01,2013-06-28 23:54:00,
2013-06-28 18:59:00,76.1,62.2,29.74,North,352,4.0,5.0,62,0.00,,---,0.02,VWS V14.01,2013-06-28 23:59:00,
2013-06-28 19:04:00,74.5,64.1,29.74,NNE,20,1.0,9.0,70,0.03,,---,0.05,VWS V14.01,2013-06-29 00:04:00,
2013-06-28 19:09:00,71.9,64.3,29.74,WSW,256,2.0,9.0,77,0.03,,---,0.05,VWS V14.01,2013-06-29 00:09:00,
2013-06-28 19:14:00,70.6,64.8,29.74,NNE,12,0.0,1.0,82,0.03,,---,0.05,VWS V14.01,2013-06-29 00:14:00,
2013-06-28 19:19:00,69.8,64.8,29.75,NNW,346,0.0,3.0,84,0.03,,---,0.05,VWS V14.01,2013-06-29 00:19:00,
2013-06-28 19:24:00,69.4,64.7,29.75,NNW,346,0.0,3.0,85,0.03,,---,0.05,VWS V14.01,2013-06-29 00:24:00,
2013-06-28 19:29:00,69.0,64.6,29.75,NNW,331,2.0,3.0,86,0.03,,---,0.05,VWS V14.01,2013-06-29 00:29:00,
2013-06-28 19:34:00,68.7,64.3,29.76,NNW,345,2.0,6.0,86,0.06,,---,0.08,VWS V14.01,2013-06-29 00:34:00,
2013-06-28 19:39:00,68.2,64.2,29.76,North,9,1.0,6.0,87,0.06,,---,0.08,VWS V14.01,2013-06-29 00:39:00,
2013-06-28 19:44:00,67.8,64.4,29.75,SE,135,0.0,5.0,89,0.08,,---,0.10,VWS V14.01,2013-06-29 00:44:00,
2013-06-28 19:49:00,67.5,64.2,29.75,North,10,1.0,5.0,89,0.08,,---,0.10,VWS V14.01,2013-06-29 00:49:00,
2013-06-28 19:54:00,67.1,64.1,29.75,WNW,294,1.0,5.0,90,0.08,,---,0.10,VWS V14.01,2013-06-29 00:54:00,
2013-06-28 19:59:00,66.9,63.9,29.75,NNE,30,0.0,2.0,90,0.08,,---,0.10,VWS V14.01,2013-06-29 00:59:00,
2013-06-28 20:04:00,66.8,64.1,29.75,North,9,0.0,2.0,91,0.08,,---,0.10,VWS V14.01,2013-06-29 01:04:00,
2013-06-28 20:09:00,66.6,63.9,29.75,North,8,0.0,3.0,91,0.08,,---,0.10,VWS V14.01,2013-06-29 01:09:00,
2013-06-28 20:14:00,66.6,63.9,29.75,NNW,332,1.0,1.0,91,0.05,,---,0.10,VWS V14.01,2013-06-29 01:14:00,
2013-06-28 20:19:00,66.6,63.9,29.75,NNW,341,0.0,2.0,91,0.05,,---,0.10,VWS V14.01,2013-06-29 01:19:00,
2013-06-28 20:24:00,66.7,64.0,29.75,NNE,12,1.0,2.0,91,0.05,,---,0.10,VWS V14.01,2013-06-29 01:24:00,
2013-06-28 20:29:00,66.8,64.1,29.76,North,8,1.0,3.0,91,0.05,,---,0.10,VWS V14.01,2013-06-29 01:29:00,
2013-06-28 20:34:00,67.0,64.3,29.76,North,350,0.0,3.0,91,0.05,,---,0.10,VWS V14.01,2013-06-29 01:34:00,
2013-06-28 20:39:00,67.1,64.4,29.76,North,10,0.0,3.0,91,0.05,,---,0.10,VWS V14.01,2013-06-29 01:39:00,
2013-06-28 20:44:00,67.1,64.4,29.76,NNE,20,0.0,1.0,91,0.01,,---,0.10,VWS V14.01,2013-06-29 01:44:00,
2013-06-28 20:49:00,67.0,64.3,29.76,NE,34,1.0,3.0,91,0.01,,---,0.10,VWS V14.01,2013-06-29 01:49:00,
2013-06-28 20:54:00,66.9,64.2,29.76,WNW,301,1.0,3.0,91,0.01,,---,0.10,VWS V14.01,2013-06-29 01:54:00,
2013-06-28 20:59:00,66.8,64.1,29.76,NNW,341,0.0,1.0,91,0.00,,---,0.10,VWS V14.01,2013-06-29 01:59:00,
2013-06-28 21:04:00,66.7,64.0,29.76,NW,312,1.0,3.0,91,0.00,,---,0.10,VWS V14.01,2013-06-29 02:04:00,
2013-06-28 21:09:00,66.6,63.9,29.76,North,2,0.0,3.0,91,0.00,,---,0.10,VWS V14.01,2013-06-29 02:09:00,
2013-06-28 21:14:00,66.6,63.9,29.76,North,2,0.0,1.0,91,0.00,,---,0.10,VWS V14.01,2013-06-29 02:14:00,
2013-06-28 21:19:00,66.5,63.8,29.77,North,2,0.0,1.0,91,0.00,,---,0.10,VWS V14.01,2013-06-29 02:19:00,
2013-06-28 21:24:00,66.3,63.6,29.77,WNW,298,0.0,1.0,91,0.00,,---,0.10,VWS V14.01,2013-06-29 02:24:00,
2013-06-28 21:29:00,66.3,63.6,29.77,NNE,17,0.0,5.0,91,0.00,,---,0.10,VWS V14.01,2013-06-29 02:29:00,
2013-06-28 21:34:00,66.4,63.7,29.77,North,358,1.0,5.0,91,0.00,,---,0.10,VWS V14.01,2013-06-29 02:34:00,
2013-06-28 21:39:00,66.4,63.7,29.77,North,357,0.0,5.0,91,0.00,,---,0.10,VWS V14.01,2013-06-29 02:39:00,
2013-06-28 21:44:00,66.4,63.7,29.77,North,351,0.0,1.0,91,0.00,,---,0.10,VWS V14.01,2013-06-29 02:44:00,
2013-06-28 21:49:00,66.5,63.8,29.77,North,2,1.0,2.0,91,0.00,,---,0.10,VWS V14.01,2013-06-29 02:49:00,
2013-06-28 21:54:00,66.5,63.8,29.77,North,2,0.0,2.0,91,0.00,,---,0.10,VWS V14.01,2013-06-29 02:54:00,
2013-06-28 21:59:00,66.5,63.8,29.77,WNW,287,0.0,1.0,91,0.00,,---,0.10,VWS V14.01,2013-06-29 02:59:00,
2013-06-28 22:04:00,66.5,63.8,29.77,NNE,27,0.0,2.0,91,0.00,,---,0.10,VWS V14.01,2013-06-29 03:04:00,
2013-06-28 22:09:00,66.5,63.8,29.77,North,360,0.0,2.0,91,0.00,,---,0.10,VWS V14.01,2013-06-29 03:09:00,
2013-06-28 22:14:00,66.6,63.9,29.77,NNW,332,0.0,2.0,91,0.00,,---,0.10,VWS V14.01,2013-06-29 03:14:00,
2013-06-28 22:19:00,66.6,63.9,29.77,North,355,0.0,2.0,91,0.00,,---,0.10,VWS V14.01,2013-06-29 03:19:00,
2013-06-28 22:24:00,66.7,64.0,29.78,NW,324,0.0,2.0,91,0.00,,---,0.10,VWS V14.01,2013-06-29 03:24:00,
2013-06-28 22:29:00,66.7,64.0,29.77,North,354,0.0,3.0,91,0.00,,---,0.10,VWS V14.01,2013-06-29 03:29:00,
2013-06-28 22:34:00,66.8,64.1,29.77,NW,320,0.0,3.0,91,0.00,,---,0.10,VWS V14.01,2013-06-29 03:34:00,
2013-06-28 22:39:00,66.9,64.2,29.77,North,6,0.0,3.0,91,0.00,,---,0.10,VWS V14.01,2013-06-29 03:39:00,
2013-06-28 22:44:00,66.9,64.2,29.77,NW,324,0.0,2.0,91,0.00,,---,0.10,VWS V14.01,2013-06-29 03:44:00,
2013-06-28 22:49:00,66.9,64.2,29.77,North,358,1.0,2.0,91,0.00,,---,0.10,VWS V14.01,2013-06-29 03:49:00,
2013-06-28 22:54:00,67.0,64.0,29.77,NNE,14,0.0,3.0,90,0.00,,---,0.10,VWS V14.01,2013-06-29 03:54:00,
2013-06-28 22:59:00,67.1,64.1,29.77,North,353,1.0,2.0,90,0.00,,---,0.10,VWS V14.01,2013-06-29 03:59:00,
2013-06-28 23:01:00,67.0,64.0,29.77,North,3,0.0,2.0,90,0.00,,---,0.10,VWS V14.01,2013-06-29 04:01:00,
2013-06-28 23:06:00,66.9,63.9,29.77,NNW,341,0.0,2.0,90,0.00,,---,0.10,VWS V14.01,2013-06-29 04:06:00,
2013-06-28 23:11:00,66.8,63.8,29.76,NNW,344,1.0,2.0,90,0.00,,---,0.10,VWS V14.01,2013-06-29 04:11:00,
2013-06-28 23:16:00,66.7,63.7,29.77,North,8,2.0,2.0,90,0.00,,---,0.10,VWS V14.01,2013-06-29 04:16:00,
2013-06-28 23:21:00,66.6,63.3,29.77,North,10,0.0,2.0,89,0.00,,---,0.10,VWS V14.01,2013-06-29 04:21:00,
2013-06-28 23:26:00,66.5,63.2,29.77,NE,37,1.0,4.0,89,0.00,,---,0.10,VWS V14.01,2013-06-29 04:26:00,
2013-06-28 23:31:00,66.4,63.1,29.76,NNE,16,1.0,2.0,89,0.00,,---,0.10,VWS V14.01,2013-06-29 04:31:00,
2013-06-28 23:36:00,66.3,63.0,29.76,NNW,346,0.0,4.0,89,0.00,,---,0.10,VWS V14.01,2013-06-29 04:36:00,
2013-06-28 23:41:00,66.2,63.2,29.76,North,358,1.0,4.0,90,0.00,,---,0.10,VWS V14.01,2013-06-29 04:41:00,
2013-06-28 23:46:00,66.2,63.2,29.76,North,359,0.0,2.0,90,0.00,,---,0.10,VWS V14.01,2013-06-29 04:46:00,
2013-06-28 23:51:00,66.1,63.1,29.76,NW,308,1.0,2.0,90,0.00,,---,0.10,VWS V14.01,2013-06-29 04:51:00,
2013-06-28 23:56:00,66.0,62.7,29.76,North,355,0.0,3.0,89,0.00,,---,0.10,VWS V14.01,2013-06-29 04:56:00,